This is the latest recevied weather packets stored in our database for station/object N7SWJ. If no packets are shown the sender has not sent any weather packets the latest 10 day(s).
| Time | Temp. | Humidity | Pressure | Rain* | Wind** | Luminosity | Snow |
|---|---|---|---|---|---|---|---|
| 1777888575 | 7.78° C | 57% | 1011 hPa | 0 mm | - | 0 W/m² | - |
| 1777888270 | 7.78° C | 56% | 1011 hPa | 0 mm | - | 0 W/m² | - |
| 1777887968 | 8.33° C | 55% | 1011.3 hPa | 0 mm | - | 0 W/m² | - |
| 1777887665 | 8.89° C | 54% | 1011.3 hPa | 0 mm | - | 0 W/m² | - |
| 1777887360 | 9.44° C | 52% | 1011.3 hPa | 0 mm | - | 0 W/m² | - |
| 1777887057 | 9.44° C | 51% | 1011.2 hPa | 0 mm | - | 0 W/m² | - |
| 1777886753 | 9.44° C | 51% | 1011 hPa | 0 mm | - | 0 W/m² | - |
| 1777886449 | 8.89° C | 52% | 1011 hPa | 0 mm | - | 0 W/m² | - |
| 1777886148 | 8.89° C | 52% | 1011 hPa | 0 mm | - | 0 W/m² | - |
| 1777885845 | 9.44° C | 51% | 1011 hPa | 0 mm | - | 0 W/m² | - |
| 1777885543 | 10° C | 50% | 1011.4 hPa | 0 mm | - | 0 W/m² | - |
| 1777885241 | 10° C | 49% | 1011.3 hPa | 0 mm | - | 0 W/m² | - |
| 1777884939 | 10° C | 49% | 1011.4 hPa | 0 mm | - | 0 W/m² | - |
| 1777884634 | 10° C | 49% | 1011.4 hPa | 0 mm | - | 0 W/m² | - |
| 1777884331 | 10° C | 49% | 1011.3 hPa | 0 mm | - | 0 W/m² | - |
| 1777884027 | 10° C | 49% | 1011.5 hPa | 0 mm | - | 0 W/m² | - |
| 1777883726 | 10° C | 49% | 1011.5 hPa | 0 mm | - | 0 W/m² | - |
| 1777883421 | 10° C | 49% | 1011.6 hPa | 0 mm | - | 0 W/m² | - |
| 1777883118 | 10° C | 49% | 1011.6 hPa | 0 mm | - | 0 W/m² | - |
| 1777882815 | 10.56° C | 48% | 1011.6 hPa | 0 mm | - | 0 W/m² | - |
| 1777882512 | 10° C | 48% | 1012 hPa | 0 mm | - | 0 W/m² | - |
| 1777882207 | 10° C | 48% | 1012.1 hPa | 0 mm | - | 0 W/m² | - |
| 1777881904 | 10° C | 48% | 1012 hPa | 0 mm | - | 0 W/m² | - |
| 1777881600 | 10.56° C | 48% | 1012 hPa | 0 mm | - | 0 W/m² | - |
| 1777881297 | 10.56° C | 47% | 1012.2 hPa | 0 mm | - | 0 W/m² | - |
* Rain latest hour (hover to see other rain measurements)
** Current wind speed in m/s (hover to see current wind gust speed)